TimeMST,TemperatureF,Dew PointF,Humidity,Sea Level PressureIn,VisibilityMPH,Wind Direction,Wind SpeedMPH,Gust SpeedMPH,PrecipitationIn,Events,Conditions,WindDirDegrees,DateUTC
12:53 AM,10.0,7.0,87,30.38,-9999.0,WSW,3.5,-,N/A,,Clear,240,2013-01-09 07:53:00
1:53 AM,12.0,9.0,88,30.35,-9999.0,WSW,4.6,-,N/A,,Clear,250,2013-01-09 08:53:00
2:53 AM,14.0,10.0,84,30.32,-9999.0,West,3.5,-,N/A,,Scattered Clouds,260,2013-01-09 09:53:00
3:53 AM,12.9,9.0,84,30.30,-9999.0,Calm,Calm,-,N/A,,Clear,0,2013-01-09 10:53:00
4:53 AM,14.0,10.9,88,30.26,-9999.0,Calm,Calm,-,N/A,,Clear,0,2013-01-09 11:53:00
6:53 AM,17.1,14.0,88,30.21,-9999.0,WNW,3.5,-,N/A,,Mostly Cloudy,290,2013-01-09 13:53:00
7:42 AM,17.6,14.0,86,30.11,-9999.0,SW,4.6,-,N/A,,Mostly Cloudy,230,2013-01-09 14:42:00
7:53 AM,18.0,15.1,88,30.17,-9999.0,Calm,Calm,-,N/A,,Mostly Cloudy,0,2013-01-09 14:53:00
8:53 AM,19.9,16.0,85,30.16,-9999.0,Calm,Calm,-,N/A,,Unknown,0,2013-01-09 15:53:00
9:24 AM,21.2,17.6,86,30.07,-9999.0,WSW,6.9,-,N/A,,Mostly Cloudy,250,2013-01-09 16:24:00
9:38 AM,21.2,17.6,86,30.03,2.5,East,3.5,-,N/A,,Overcast,100,2013-01-09 16:38:00
9:53 AM,21.0,18.0,88,30.12,2.5,ENE,4.6,-,N/A,,Overcast,70,2013-01-09 16:53:00
10:29 AM,21.2,19.4,93,30.03,2.0,NW,4.6,-,N/A,,Overcast,310,2013-01-09 17:29:00
10:37 AM,23.0,19.4,86,30.02,1.8,NW,3.5,-,N/A,,Overcast,320,2013-01-09 17:37:00
10:53 AM,23.0,19.9,88,30.12,2.0,WSW,3.5,-,N/A,,Overcast,240,2013-01-09 17:53:00
11:11 AM,23.0,19.4,86,30.01,2.5,WSW,5.8,-,N/A,,Overcast,250,2013-01-09 18:11:00
11:53 AM,25.0,21.0,85,30.07,3.0,Calm,Calm,-,N/A,,Overcast,0,2013-01-09 18:53:00
12:41 PM,26.6,21.2,80,29.94,2.5,WSW,3.5,-,N/A,,Mostly Cloudy,250,2013-01-09 19:41:00
12:53 PM,27.0,23.0,85,30.03,2.5,Calm,Calm,-,N/A,,Mostly Cloudy,0,2013-01-09 19:53:00
1:06 PM,28.4,23.0,80,29.92,3.0,Calm,Calm,-,N/A,,Haze,0,2013-01-09 20:06:00
1:45 PM,28.4,23.0,80,29.91,2.5,West,4.6,-,N/A,,Haze,260,2013-01-09 20:45:00
1:53 PM,28.0,23.0,81,29.99,3.0,West,4.6,-,N/A,,Haze,280,2013-01-09 20:53:00
2:53 PM,28.9,24.1,82,29.97,3.0,West,6.9,-,N/A,,Haze,260,2013-01-09 21:53:00
3:53 PM,30.0,25.0,82,29.95,3.0,West,3.5,-,N/A,,Haze,270,2013-01-09 22:53:00
4:51 PM,30.2,26.6,86,29.84,2.5,West,4.6,-,N/A,,Overcast,270,2013-01-09 23:51:00
4:53 PM,30.0,26.1,85,29.92,2.5,West,3.5,-,N/A,,Overcast,260,2013-01-09 23:53:00
5:53 PM,30.0,26.1,85,29.90,4.0,WSW,6.9,-,N/A,,Overcast,250,2013-01-10 00:53:00
6:53 PM,32.0,28.0,85,29.87,4.0,WSW,5.8,-,0.00,,Overcast,240,2013-01-10 01:53:00
7:53 PM,32.0,30.0,92,29.84,3.0,WNW,3.5,-,0.00,,Overcast,300,2013-01-10 02:53:00
8:21 PM,33.8,28.4,81,29.76,4.0,SW,6.9,-,0.00,,Overcast,230,2013-01-10 03:21:00
8:53 PM,33.1,30.0,89,29.83,3.0,West,5.8,-,0.01,Rain,Light Freezing Rain,270,2013-01-10 03:53:00
9:16 PM,33.8,30.2,87,29.76,4.0,NW,5.8,-,0.01,Rain,Light Rain,310,2013-01-10 04:16:00
9:53 PM,35.1,32.0,89,29.82,6.0,NNW,9.2,-,0.01,Rain,Light Rain,330,2013-01-10 04:53:00
10:30 PM,35.6,32.0,87,29.74,5.0,NNW,6.9,-,0.04,Rain,Light Rain,330,2013-01-10 05:30:00
11:11 PM,33.8,30.2,87,29.75,2.5,NW,23.0,29.9,0.01,Snow,Light Snow,320,2013-01-10 06:11:00
11:47 PM,33.8,30.2,87,29.74,4.0,NNW,16.1,-,0.01,Snow,Light Snow,330,2013-01-10 06:47:00